Emporia, Virginia, United States (23847)
Lat: 36.69N, Lon: 77.54W
Wx Zone: VAZ087
Local Info
Past Weather Observations for Monday, July 27, 2015

NOTE: This archive is for the closest National Weather Service station to Emporia. Information may differ from the station used for current weather conditions.

Click here for Long-term Archive

Time Weather Temperature Dewpoint Humidity Pressure Winds Precip Visibility
23:55
Clear
72°F / 22°C 70°F / 21°C 94% 30.04 in
(1017 mb)
Calm - 10SM
23:35
Clear
72°F / 22°C 70°F / 21°C 94% 30.04 in
(1017 mb)
SE 3.5 mph
(SE 6 kph)
- 10SM
23:15
Clear
72°F / 22°C 70°F / 21°C 94% 30.04 in
(1017 mb)
Calm - 10SM
22:55
Clear
73°F / 23°C 70°F / 21°C 89% 30.04 in
(1017 mb)
Calm - 10SM
22:35
Clear
73°F / 23°C 70°F / 21°C 89% 30.04 in
(1017 mb)
SE 3.5 mph
(SE 6 kph)
- 10SM
22:15
Fair
73°F / 23°C 70°F / 21°C 89% 30.04 in
(1017 mb)
Calm -
21:55
Clear
75°F / 24°C 70°F / 21°C 83% 30.04 in
(1017 mb)
Calm -
21:35
Fair
73°F / 23°C 72°F / 22°C 94% 30.04 in
(1017 mb)
SE 5.8 mph
(SE 9 kph)
-
21:15
Fair
73°F / 23°C 72°F / 22°C 94% 30.04 in
(1017 mb)
E 3.5 mph
(E 6 kph)
-
20:55
Fair
75°F / 24°C 72°F / 22°C 89% 30.01 in
(1016 mb)
SE 5.8 mph
(SE 9 kph)
-
20:35
Clear
77°F / 25°C 72°F / 22°C 83% 30.01 in
(1016 mb)
E 3.5 mph
(E 6 kph)
-
20:15
Fair
77°F / 25°C 72°F / 22°C 83% 30.01 in
(1016 mb)
E 3.5 mph
(E 6 kph)
-
19:55
Fair
77°F / 25°C 72°F / 22°C 83% 30.01 in
(1016 mb)
E 3.5 mph
(E 6 kph)
-
19:35
Fair
77°F / 25°C 73°F / 23°C 89% 30.01 in
(1016 mb)
Calm -
19:15
Clear
79°F / 26°C 73°F / 23°C 84% 30.01 in
(1016 mb)
E 3.5 mph
(E 6 kph)
-
18:55
Clear
79°F / 26°C 73°F / 23°C 84% 30.01 in
(1016 mb)
E 4.6 mph
(E 7 kph)
-
18:35
Clear
81°F / 27°C 73°F / 23°C 79% 30.01 in
(1016 mb)
E 3.5 mph
(E 6 kph)
-
18:15
Clear
81°F / 27°C 72°F / 22°C 74% 30.01 in
(1016 mb)
E 3.5 mph
(E 6 kph)
-
17:55
Clear
82°F / 28°C 72°F / 22°C 70% 30.01 in
(1016 mb)
E 3.5 mph
(E 6 kph)
-
17:35
Clear
82°F / 28°C 72°F / 22°C 70% 29.98 in
(1015 mb)
SE 4.6 mph
(SE 7 kph)
-
17:15
Clear
84°F / 29°C 73°F / 23°C 70% 29.98 in
(1015 mb)
SE 4.6 mph
(SE 7 kph)
-
16:55
Clear
82°F / 28°C 72°F / 22°C 70% 29.98 in
(1015 mb)
Calm -
16:35
Clear
82°F / 28°C 72°F / 22°C 70% 29.98 in
(1015 mb)
Calm -
16:15
Clear
82°F / 28°C 70°F / 21°C 66% 29.98 in
(1015 mb)
Calm -
15:55
Clear
82°F / 28°C 70°F / 21°C 66% 30.01 in
(1016 mb)
Calm - 10SM
15:35
Clear
82°F / 28°C 70°F / 21°C 66% 30.01 in
(1016 mb)
SE 3.5 mph
(SE 6 kph)
- 10SM
15:15
Clear
84°F / 29°C 70°F / 21°C 62% 30.01 in
(1016 mb)
SE 8.1 mph
(SE 13 kph)
- 10SM
14:55
Clear
84°F / 29°C 70°F / 21°C 62% 30.01 in
(1016 mb)
SE 6.9 mph
(SE 11 kph)
- 10SM
14:35
Clear
84°F / 29°C 70°F / 21°C 62% 30.01 in
(1016 mb)
SSE 6.9 mph
(SSE 11 kph)
-
14:15
Clear
84°F / 29°C 70°F / 21°C 62% 30.01 in
(1016 mb)
SE 8.1 mph
(SE 13 kph)
- 10SM
13:55
Clear
82°F / 28°C 72°F / 22°C 70% 30.04 in
(1017 mb)
SE 6.9 mph
(SE 11 kph)
- 10SM
13:35
Partly Cloudy
82°F / 28°C 72°F / 22°C 70% 30.04 in
(1017 mb)
SSE 4.6 mph
(SSE 7 kph)
-
13:15
Partly Cloudy
84°F / 29°C 73°F / 23°C 70% 30.04 in
(1017 mb)
ESE 6.9 mph
(ESE 11 kph)
-
12:55
Partly Cloudy
82°F / 28°C 73°F / 23°C 74% 30.04 in
(1017 mb)
SE 4.6 mph
(SE 7 kph)
- 10SM
12:35
Overcast
82°F / 28°C 73°F / 23°C 74% 30.04 in
(1017 mb)
SSE 4.6 mph
(SSE 7 kph)
-
12:15
Mostly Cloudy
82°F / 28°C 72°F / 22°C 70% 30.06 in
(1018 mb)
SE 5.8 mph
(SE 9 kph)
-
11:55
Overcast
81°F / 27°C 73°F / 23°C 79% 30.04 in
(1017 mb)
SE 5.8 mph
(SE 9 kph)
-
11:35
Mostly Cloudy
81°F / 27°C 73°F / 23°C 79% 30.06 in
(1018 mb)
SE 6.9 mph
(SE 11 kph)
-
11:15
Mostly Cloudy
79°F / 26°C 73°F / 23°C 84% 30.06 in
(1018 mb)
SE 3.5 mph
(SE 6 kph)
-
10:55
Mostly Cloudy
79°F / 26°C 72°F / 22°C 79% 30.06 in
(1018 mb)
SE 5.8 mph
(SE 9 kph)
- 10SM
10:35
Overcast
77°F / 25°C 72°F / 22°C 83% 30.06 in
(1018 mb)
E 5.8 mph
(E 9 kph)
- 10SM
10:15
Mostly Cloudy
77°F / 25°C 72°F / 22°C 83% 30.06 in
(1018 mb)
Calm - 10SM
09:55
Mostly Cloudy
77°F / 25°C 72°F / 22°C 83% 30.06 in
(1018 mb)
E 3.5 mph
(E 6 kph)
- 10SM
09:35
Fair
75°F / 24°C 72°F / 22°C 89% 30.06 in
(1018 mb)
E 3.5 mph
(E 6 kph)
-
09:15
Partly Cloudy
73°F / 23°C 72°F / 22°C 94% 30.06 in
(1018 mb)
E 3.5 mph
(E 6 kph)
- 10SM
08:55
Mostly Cloudy
73°F / 23°C 72°F / 22°C 94% 30.06 in
(1018 mb)
Calm - 10SM
08:35
Mostly Cloudy
73°F / 23°C 70°F / 21°C 89% 30.06 in
(1018 mb)
Calm - 10SM
08:15
Mostly Cloudy
72°F / 22°C 70°F / 21°C 94% 30.04 in
(1017 mb)
E 3.5 mph
(E 6 kph)
- 10SM
07:55
Mostly Cloudy
72°F / 22°C 70°F / 21°C 94% 30.06 in
(1018 mb)
Calm - 10SM
07:35
Overcast
72°F / 22°C 70°F / 21°C 94% 30.04 in
(1017 mb)
Calm - 7SM
07:15
Overcast
72°F / 22°C 70°F / 21°C 94% 30.04 in
(1017 mb)
Calm - 10SM
06:55
Overcast
70°F / 21°C 70°F / 21°C 100% 30.04 in
(1017 mb)
Calm - 10SM
06:35
Overcast
70°F / 21°C 70°F / 21°C 100% 30.04 in
(1017 mb)
Calm - 7SM
06:15
Mostly Cloudy
70°F / 21°C 70°F / 21°C 100% 30.04 in
(1017 mb)
Calm - 7SM
05:55
Overcast
Light Rain
70°F / 21°C 70°F / 21°C 100% 30.04 in
(1017 mb)
Calm 0.01 in
(0.25 mm)
7SM
05:35
Overcast
70°F / 21°C 70°F / 21°C 100% 30.04 in
(1017 mb)
Calm 0.01 in
(0.25 mm)
05:15
Overcast
Rain
70°F / 21°C 70°F / 21°C 100% 30.01 in
(1016 mb)
Calm - 7SM
04:55
Mostly Cloudy
70°F / 21°C 68°F / 20°C 94% 30.01 in
(1016 mb)
Calm - 10SM
04:35
Mostly Cloudy
70°F / 21°C 68°F / 20°C 94% 30.01 in
(1016 mb)
Calm - 10SM
04:15
Partly Cloudy
68°F / 20°C 68°F / 20°C 100% 30.01 in
(1016 mb)
Calm - 10SM
03:55
Partly Cloudy
68°F / 20°C 68°F / 20°C 100% 30.01 in
(1016 mb)
Calm - 7SM
03:35
Overcast
68°F / 20°C 68°F / 20°C 100% 30.01 in
(1016 mb)
Calm - 10SM
03:15
Overcast
68°F / 20°C 68°F / 20°C 100% 30.01 in
(1016 mb)
Calm - 10SM
02:55
Mostly Cloudy
68°F / 20°C 68°F / 20°C 100% 30.01 in
(1016 mb)
Calm - 10SM
02:35
Partly Cloudy
68°F / 20°C 68°F / 20°C 100% 30.01 in
(1016 mb)
Calm - 10SM
02:15
Clear
68°F / 20°C 68°F / 20°C 100% 30.01 in
(1016 mb)
Calm - 10SM
01:55
Clear
68°F / 20°C 68°F / 20°C 100% 30.01 in
(1016 mb)
Calm - 10SM
01:35
Clear
68°F / 20°C 68°F / 20°C 100% 30.01 in
(1016 mb)
Calm - 10SM
01:15
Clear
70°F / 21°C 68°F / 20°C 94% 30.01 in
(1016 mb)
Calm - 10SM
00:55
Clear
70°F / 21°C 68°F / 20°C 94% 30.01 in
(1016 mb)
Calm - 10SM
00:35
Clear
68°F / 20°C 66°F / 19°C 94% 30.04 in
(1017 mb)
Calm - 10SM
00:15
Clear
70°F / 21°C 68°F / 20°C 94% 30.01 in
(1016 mb)
Calm - 10SM
Time Weather Temperature Dewpoint Humidity Pressure Winds Precip Visibility


Weather for websites

WeatherForYou.com, LLC is not responsible for any damages or problems caused by this service. Current weather conditions are obtained from the closest station including government and personal stations which may have varying degrees of accuracy. Weather forecasts are derived from the NOAA NDFD. Like all things, this site belongs to Jesus Christ... He just trusts us to maintain it. If you have any questions or comments email webmaster@weatherforyou.com

Copyright © 2015, WeatherForYou.com LLC. All rights reserved.